Probability
0 0 0 0 0 0 0 0 0 0 0 0 0 0 0 0 0 0 0 0 0 0 0 0 0 0 0 0 0 0 0 0 0 0 0 0 0 0 0 0 0 0 0
0 0 0 0 0 0 0 0 0 0 0 0 0 0 0 0 0 0 0 0 0 0 0 0 0 0 0 0 0 0 0 0 0 0 0 0 0 0 0 0 0 0 0
0 0 0 0 0 0 0 0 0 0 0 0 0 0 0 0 0 0 0 0 0 0 0 0 0 0 0 0 0 0 0 0 0 0 0 0 0 0 0 0 0 0 0
0 0 0 0 0 0 0 0 0 0 0 0 0 0 0 0 0 0 0 0 0 0 0 0 0 0 0 0 0 0 0 0 0 0 0 0 0 0 0 0 0 0 0
0 0 0 0 0 0 0 0 0 0 0 0 0 0 0 0 0 0 0 0 0 0 0 0 0 0 0 0 0 0 0 0 0 0 0 0 0 0 0 0 0 0 0
0 0 0 0 0 0 0 0 0 0 0 0 0 0 0 0 0 0 0 0 0 0 0 0 0 0 0 0 0 0 0 0 0 0 0 0 0 0 0 0 0 0 0
0 0 0 0 0 0 0 0 0 0 0 0 0 0 0 0 0 0 0 0 0 0 0 0 0 0 0 0 0 0 0 0 0 0 0 0 0 0 0 0 0 0 0
0 0 0 0 0 0 0 0 0 0 0 0 0 0 0 0 0 0 0 0 0 0 0 0 0 0 0 0 0 0 0 0 0 0 0 0 0 0 0 0 0 0 0
0 0 0 0 0 0 0 0 0 0 0 0 0 0 0 0 0 0 0 0 0 0 0 0 0 0 0 0 0 0 0 0 0 0 0 0 0 0 0 0 0 0 0
0 0 0 0 0 0 0 0 0 0 0 0 0 0 0 0 0 0 0 0 0 0 0 0 0 0 0 0 0 0 0 0 0 0 0 0 0 0 0 0 0 0 0
0 0 0 0 0 0 0 0 0 0 0 0 0 0 0 0 0 0 0 0 0 0 0 0 0 0 0 0 0 0 0 0 0 0 0 0 0 0 0 0 0 0 0
0 0 0 0 0 0 0 0 0 0 0 0 0 0 0 0 0 0 0 0 0 0 0 0 0 0 0 0 0 0 0 0 0 0 0 0 0 0 0 0 0 0 0
0 0 0 0 0 0 0 0 0 0 0 0 0 0 0 0 0 0 0 0 0 0 0 0 0 0 0 0 0 0 0 0 0 0 0 0 0 0 0 0 0 0 0
0 0 0 0 0 0 0 0 0 0 0 0 0 0 0 0 0 0 0 0 0 0 0 0 0 0 0 0 0 0 0 0 0 0 0 0 0 0 0 0 0 0 0
0 0 0 0 0 0 0 0 0 0 0 0 0 0 0 0 0 0 0 0 0 0 0 0 0 0 0 0 0 0 0 0 0 0 0 0 0 0 0 0 0 0 0
0 0 0 0 0 0 0 0 0 0 0 0 0 0 0 0 0 0 0 0 0 0 0 0 0 0 0 0 0 0 0 0 0 0 0 0 0 0 0 0 0 0 0
0 0 0 0 0 0 0 0 0 0 0 0 0 0 0 0 0 0 0 0 0 0 0 0 0 0 0 0 0 0 0 0 0 0 0 0 0 0 0 0 0 0 0
0 0 0 0 0 0 0 0 0 0 0 0 0 0 0 0 0 0 0 0 0 0 0 0 0 0 0 0 0 0 0 0 0 0 0 0 0 0 0 0 0 0 0
0 0 0 0 0 0 0 0 0 0 0 0 0 0 0 0 0 0 0 0 0 0 0 0 0 0 0 0 0 0 0 0 0 0 0 0 0 0 0 0 0 0 0
0 0 0 0 0 0 0 0 0 0 0 0 0 0 0 0 0 0 0 0 0 0 0 0 0 0 0 0 0 0 0 0 0 0 0 0 0 0 0 0 0 0 0
0 0 0 0 0 0 0 0 0 0 0 0 0 0 0 0 0 0 0 0 0 0 0 0 0 0 0 0 0 0 0 0 0 0 0 0 0 0 0 0 0 0 0
0 0 0 0 0 0 0 0 0 0 0 0 0 0 0 0 0 0 0 0 0 0 0 0 0 0 0 0 0 0 0 0 0 0 0 0 0 0 0 0 0 0 0
0 0 0 0 0 0 0 0 0 0 0 0 0 0 0 0 0 0 0 0 0 0 0 0 0 0 0 0 0 0 0 0 0 0 0 0 0 0 0 0 0 0 0
0 0 0 0 0 0 0 0 0 0 0 0 0 0 0 0 0 0 0 0 0 0 0 0 0 0 0 0 0 0 0 0 0 0 0 0 0 0 0 0 0 0 0
0 0 0 0 0 0 0 0 0 0 0 0 0 0 0 0 0 0 0 0 0 0 0 0 0 0 0 0 0 0 0 0 0 0 0 0 0 0 0 0 0 0 0
0 0 0 0 0 0 0 0 0 0 0 0 0 0 0 0 0 0 0 0 0 0 0 0 0 0 0 0 0 0 0 0 0 0 0 0 0 0 0 0 0 0 0
Height
5873 5874 5875 5876 5877 5878 5879 5880 5880 5881 5881 5882 5882 5882 5882 5882 5881 5881 5881 5881 5880 5880 5879 5879 5879 5878 5877 5876 5876 5875 5874 5874 5873 5873 5872 5871 5870 5870 5869 5869 5868 5867 5867
5871 5872 5873 5874 5875 5876 5877 5878 5878 5879 5879 5879 5880 5880 5879 5880 5879 5879 5879 5878 5878 5878 5877 5877 5876 5875 5875 5874 5873 5872 5872 5871 5870 5870 5869 5868 5867 5866 5866 5865 5864 5864 5863
5869 5870 5871 5872 5873 5874 5875 5876 5876 5877 5877 5877 5877 5877 5877 5877 5877 5877 5877 5876 5876 5875 5875 5874 5873 5873 5872 5871 5870 5869 5868 5868 5867 5866 5866 5865 5864 5863 5862 5861 5861 5860 5859
5866 5867 5869 5870 5871 5872 5872 5873 5874 5874 5875 5875 5875 5875 5875 5875 5875 5875 5874 5874 5873 5873 5872 5871 5871 5870 5869 5868 5867 5866 5865 5864 5864 5863 5862 5861 5860 5859 5858 5858 5857 5856 5855
5864 5865 5866 5867 5868 5869 5870 5871 5872 5872 5873 5873 5873 5873 5873 5873 5872 5872 5872 5871 5871 5870 5869 5869 5868 5867 5866 5865 5864 5863 5862 5861 5860 5860 5859 5858 5857 5856 5855 5854 5853 5852 5851
5861 5862 5864 5865 5866 5867 5868 5869 5869 5870 5870 5870 5870 5870 5870 5870 5870 5869 5869 5868 5868 5867 5866 5866 5865 5864 5863 5862 5861 5860 5859 5858 5857 5856 5855 5854 5853 5852 5850 5849 5848 5847 5846
5859 5860 5862 5863 5864 5865 5865 5866 5867 5867 5867 5868 5868 5868 5868 5867 5867 5866 5866 5865 5865 5864 5863 5862 5862 5861 5859 5858 5857 5856 5855 5854 5853 5852 5851 5850 5848 5847 5846 5845 5844 5843 5842
5857 5858 5859 5860 5861 5862 5863 5864 5864 5864 5865 5865 5865 5865 5865 5864 5864 5863 5863 5862 5861 5860 5860 5859 5858 5857 5856 5854 5853 5852 5851 5850 5849 5848 5846 5845 5844 5842 5841 5840 5838 5837 5836
5855 5856 5857 5858 5859 5860 5860 5861 5861 5862 5862 5862 5862 5862 5861 5861 5861 5860 5859 5858 5858 5857 5856 5855 5854 5853 5852 5850 5849 5848 5847 5845 5844 5843 5841 5840 5838 5837 5836 5834 5833 5832 5830
5852 5854 5855 5856 5856 5857 5858 5858 5858 5858 5859 5859 5858 5858 5858 5858 5857 5856 5855 5855 5854 5853 5852 5851 5850 5849 5847 5846 5845 5843 5842 5841 5839 5838 5836 5835 5833 5832 5830 5829 5827 5826 5824
5850 5851 5852 5853 5853 5854 5854 5855 5855 5855 5855 5855 5855 5855 5854 5854 5853 5852 5852 5851 5850 5849 5847 5846 5845 5844 5843 5841 5840 5839 5837 5836 5835 5833 5831 5829 5827 5826 5824 5823 5821 5820 5818
5847 5848 5849 5850 5850 5851 5851 5851 5851 5852 5852 5852 5851 5851 5850 5850 5849 5848 5847 5846 5845 5844 5843 5842 5841 5839 5838 5837 5835 5834 5832 5831 5829 5827 5825 5823 5821 5820 5818 5816 5815 5813 5811
5844 5845 5846 5847 5847 5847 5848 5848 5848 5848 5848 5848 5847 5847 5846 5845 5845 5844 5843 5842 5841 5839 5838 5837 5836 5835 5833 5832 5830 5828 5827 5825 5823 5822 5819 5817 5815 5813 5811 5810 5808 5806 5804
5840 5841 5842 5843 5843 5843 5844 5844 5844 5844 5843 5843 5843 5842 5841 5841 5840 5839 5838 5837 5836 5834 5833 5832 5831 5829 5828 5826 5825 5823 5821 5819 5817 5816 5813 5811 5809 5807 5805 5803 5801 5799 5797
5837 5837 5838 5839 5839 5839 5839 5839 5839 5839 5839 5838 5838 5837 5836 5836 5835 5834 5833 5832 5830 5829 5828 5827 5825 5824 5822 5821 5819 5817 5815 5813 5811 5809 5807 5805 5802 5800 5798 5796 5794 5792 5790
5832 5833 5834 5834 5835 5835 5835 5835 5835 5834 5834 5833 5833 5832 5831 5830 5829 5828 5827 5826 5825 5823 5822 5821 5820 5818 5817 5815 5813 5811 5809 5807 5805 5803 5801 5798 5795 5793 5791 5788 5786 5784 5781
5828 5828 5829 5829 5830 5830 5830 5830 5830 5829 5829 5828 5827 5826 5825 5824 5823 5822 5821 5820 5819 5817 5816 5814 5813 5812 5810 5808 5807 5805 5802 5800 5798 5796 5793 5791 5788 5786 5783 5780 5778 5775 5773
5822 5823 5824 5824 5824 5825 5825 5824 5824 5823 5823 5822 5821 5820 5819 5818 5817 5816 5815 5813 5812 5811 5809 5808 5807 5805 5803 5802 5800 5798 5795 5793 5790 5788 5786 5783 5781 5778 5775 5772 5770 5767 5764
5816 5818 5818 5818 5818 5818 5818 5818 5818 5817 5817 5816 5815 5814 5812 5811 5810 5809 5808 5807 5805 5804 5803 5801 5800 5798 5796 5795 5792 5790 5788 5786 5783 5780 5778 5775 5772 5770 5767 5764 5761 5758 5755
5810 5811 5812 5812 5812 5812 5812 5812 5811 5811 5810 5809 5808 5807 5805 5804 5803 5802 5801 5800 5799 5797 5796 5794 5793 5791 5789 5787 5785 5783 5780 5778 5775 5772 5769 5767 5764 5761 5758 5755 5752 5749 5746
5803 5804 5805 5805 5805 5805 5805 5805 5804 5803 5803 5802 5801 5799 5798 5797 5796 5795 5794 5793 5791 5790 5788 5787 5785 5784 5782 5779 5778 5775 5772 5770 5767 5764 5760 5758 5755 5752 5748 5745 5742 5739 5736
5795 5796 5797 5798 5798 5798 5797 5797 5796 5796 5795 5794 5793 5792 5791 5790 5789 5788 5786 5785 5784 5783 5781 5779 5778 5776 5774 5771 5769 5767 5765 5762 5758 5755 5751 5748 5745 5742 5739 5735 5732 5729 5726
5787 5788 5788 5789 5789 5789 5789 5789 5788 5788 5787 5786 5785 5784 5783 5782 5781 5780 5779 5778 5776 5775 5773 5772 5770 5768 5765 5763 5761 5758 5756 5753 5750 5747 5742 5739 5735 5732 5728 5725 5721 5718 5715
5778 5778 5779 5780 5780 5780 5780 5780 5780 5780 5779 5778 5777 5776 5776 5775 5773 5772 5771 5770 5769 5767 5765 5763 5761 5759 5757 5754 5752 5749 5746 5743 5741 5738 5734 5729 5726 5722 5718 5714 5711 5707 5703
5769 5769 5770 5770 5771 5771 5772 5772 5771 5771 5771 5770 5769 5768 5768 5767 5765 5764 5763 5762 5760 5759 5757 5755 5753 5751 5748 5746 5743 5740 5737 5733 5730 5727 5724 5720 5716 5712 5708 5703 5699 5696 5692
5759 5760 5760 5761 5762 5762 5762 5762 5763 5762 5762 5761 5761 5760 5759 5758 5757 5756 5755 5753 5752 5750 5748 5746 5744 5742 5739 5736 5733 5730 5727 5724 5720 5717 5714 5710 5707 5702 5697 5693 5689 5684 5680
Wind_Speed
13 13 13 12 12 12 12 11 12 12 12 13 13 13 13 13 13 13 14 15 15 15 15 16 16 16 16 17 17 17 17 18 19 19 19 19 19 19 19 19 19 19 19
14 13 13 13 13 13 13 12 13 13 13 13 12 12 12 12 13 14 14 15 15 15 16 16 17 17 17 17 17 18 18 18 18 18 18 19 19 19 19 20 20 20 20
14 14 14 14 14 13 13 13 12 12 12 12 12 12 12 13 13 14 15 15 16 16 17 17 17 17 17 17 18 18 18 18 18 18 19 19 19 20 20 20 20 21 21
15 15 14 14 13 13 13 12 12 12 12 12 12 13 13 13 14 15 15 16 16 16 17 17 17 17 18 18 19 19 19 19 19 19 19 20 20 20 21 21 22 22 22
14 14 14 13 13 12 12 12 12 12 12 13 13 13 13 14 14 15 15 16 16 16 17 17 17 18 18 19 20 20 20 21 21 21 21 21 22 22 22 22 23 23 23
13 13 13 13 12 12 12 12 12 13 13 13 13 13 13 14 14 15 15 16 16 17 18 18 19 19 20 20 21 21 22 22 22 23 23 23 24 24 24 25 25 25 25
13 13 12 12 12 12 11 12 12 12 13 13 13 13 14 14 15 16 16 17 17 18 19 19 20 21 21 22 22 23 23 23 24 24 25 25 26 26 27 27 27 27 28
11 12 12 12 12 12 12 12 13 13 13 14 14 14 15 15 16 17 17 18 19 19 20 21 21 22 22 23 23 24 24 25 25 26 26 27 28 28 29 29 29 30 30
11 11 11 12 12 12 13 14 14 14 14 15 15 16 16 17 17 18 19 19 20 21 21 22 22 23 23 24 25 25 26 26 27 27 28 28 29 29 30 30 31 31 31
12 12 12 13 13 14 14 15 15 15 15 16 17 17 18 18 19 20 20 21 21 22 23 23 23 24 25 25 26 26 27 27 28 28 29 30 30 30 31 31 31 32 32
13 13 14 14 14 15 15 16 16 16 16 17 18 18 19 20 20 21 21 22 22 23 24 24 25 25 26 26 27 27 28 28 29 29 30 31 31 31 32 32 33 33 33
15 15 15 15 15 16 16 16 17 17 18 18 19 20 20 21 22 22 22 23 24 24 25 25 25 26 26 27 28 28 29 29 30 30 31 32 32 32 33 33 33 34 34
16 17 17 17 17 17 18 18 18 19 19 20 21 21 22 22 23 23 24 24 25 25 26 26 27 27 28 28 29 29 30 30 30 31 31 32 33 33 33 33 34 34 35
19 19 19 19 19 19 20 20 20 21 21 22 22 23 24 24 25 25 26 26 26 27 27 28 28 28 29 29 30 30 31 31 32 32 32 33 33 34 34 34 34 34 35
21 21 21 21 21 21 22 22 22 23 23 24 24 25 26 26 27 27 27 27 28 28 28 29 29 29 30 31 31 31 32 32 33 33 33 34 34 34 35 35 35 36 36
23 24 24 23 23 23 24 24 24 25 25 26 26 27 27 28 28 28 28 28 29 29 29 30 30 31 31 32 33 33 33 33 34 34 34 34 35 35 35 36 36 37 38
26 26 25 25 25 26 26 26 26 27 27 28 28 29 29 30 30 30 30 30 30 31 31 31 32 32 33 33 34 34 34 34 35 35 35 35 35 36 36 37 37 38 39
28 28 28 28 28 28 28 29 29 29 29 30 30 31 31 31 31 31 31 31 31 32 32 33 33 34 34 34 35 35 35 36 35 35 36 36 36 36 37 38 38 39 39
31 30 30 30 31 31 31 31 31 31 31 32 32 32 32 32 32 32 32 32 33 33 34 34 34 35 35 35 35 36 37 37 36 36 37 37 38 38 38 39 39 40 40
34 33 33 33 33 34 34 34 34 34 34 34 33 33 33 33 33 33 33 34 34 34 34 35 35 35 36 36 36 37 37 37 37 38 38 38 39 39 39 39 40 40 41
36 36 35 35 35 36 36 36 36 36 36 35 35 35 34 34 33 34 34 34 34 35 35 35 36 36 37 37 37 37 38 38 39 39 39 39 40 40 41 41 41 41 42
38 38 38 38 38 38 38 38 38 38 37 36 36 35 35 34 34 35 35 35 35 35 35 36 37 37 37 37 38 38 38 39 39 40 40 41 41 42 42 42 42 43 43
40 41 41 41 40 40 40 40 39 38 38 37 36 36 35 35 35 35 35 35 35 36 36 37 37 37 38 38 39 40 39 39 39 40 41 42 43 43 43 43 44 44 45
42 43 43 42 42 41 41 40 39 39 38 37 37 36 35 35 35 35 35 35 35 36 37 37 38 38 39 39 40 40 41 41 41 41 42 43 43 44 44 45 46 46 46
42 43 43 43 42 41 41 40 40 39 38 38 37 36 36 35 35 36 36 36 36 37 37 38 39 39 40 40 41 41 41 42 43 42 42 43 44 45 45 46 47 47 47
42 42 43 42 42 41 41 40 40 39 39 38 37 36 36 36 36 36 36 36 37 37 38 39 40 40 41 41 42 42 43 43 43 44 43 43 44 45 45 46 47 47 48
Wind_Direction
232 235 238 241 245 249 254 260 265 268 272 276 279 282 284 287 291 294 296 298 298 299 300 300 300 299 298 296 295 295 294 293 294 294 294 294 293 292 290 289 288 286 285
235 238 240 244 248 251 256 260 265 270 273 277 280 282 284 288 291 294 296 298 298 299 300 300 299 299 298 296 295 294 293 293 292 292 292 292 292 291 290 289 287 286 284
238 241 244 248 250 254 257 261 264 268 273 278 282 285 287 289 291 293 294 295 296 298 298 299 299 298 297 296 295 294 293 293 293 292 292 291 291 290 289 288 287 285 284
239 242 245 248 251 253 256 260 263 268 274 278 282 286 288 289 291 293 294 294 295 295 296 296 296 296 296 295 295 294 293 293 292 292 291 290 290 289 288 287 285 284 283
238 241 244 247 250 252 256 260 265 270 274 278 282 285 287 289 291 292 293 294 294 295 295 295 295 295 295 294 294 293 293 292 291 291 290 290 290 289 288 287 285 284 283
236 240 243 247 250 254 258 263 268 272 276 279 282 285 287 289 291 292 293 294 294 294 295 294 294 294 294 293 293 293 293 292 291 291 290 290 289 289 288 287 285 284 283
236 240 244 248 253 258 262 268 272 275 279 282 283 286 288 290 291 292 292 293 293 294 294 293 293 293 292 292 292 292 292 292 291 291 290 290 289 288 287 286 285 284 283
234 239 244 250 256 259 264 269 273 277 280 282 284 286 288 290 292 292 293 293 293 293 293 293 292 291 291 291 291 291 291 291 291 291 290 289 289 288 287 286 285 284 283
236 241 246 253 258 262 267 271 275 278 280 282 284 286 287 289 291 292 293 293 293 293 293 292 292 291 291 291 291 291 291 291 291 291 290 290 289 289 288 286 285 284 283
241 245 252 258 262 267 270 273 275 277 280 282 284 286 287 289 291 291 292 292 292 292 292 292 292 292 291 291 291 291 292 292 292 291 291 290 290 289 288 287 286 285 284
249 252 258 263 266 269 272 274 276 277 280 283 286 287 288 289 290 290 290 291 292 293 292 291 291 292 292 291 291 292 292 292 292 292 291 291 290 289 289 288 287 286 286
255 258 262 266 268 271 273 276 277 279 281 284 286 287 288 289 290 290 290 291 292 292 291 291 291 292 292 292 292 292 292 293 293 293 292 292 291 290 289 289 288 287 286
260 263 266 269 271 273 275 277 279 280 282 284 286 288 289 289 290 290 290 290 291 291 290 290 291 292 292 292 292 293 293 294 294 293 293 293 292 291 291 290 289 288 287
263 266 269 271 273 275 276 277 279 281 283 284 285 287 288 289 289 289 290 290 290 290 290 291 291 292 292 292 292 293 293 294 294 294 294 293 293 292 292 291 290 289 289
265 268 270 272 274 276 278 279 280 282 284 285 285 286 288 288 289 289 289 289 289 289 289 290 291 291 292 293 293 293 293 294 295 295 295 294 293 293 292 292 291 290 289
265 268 271 272 274 277 279 280 281 283 285 286 286 287 287 288 288 288 287 287 287 288 289 289 290 290 291 292 293 294 294 295 295 296 295 294 293 293 292 291 291 290 289
265 268 270 273 275 277 279 280 281 283 284 285 286 287 287 287 287 287 287 286 286 287 288 289 289 290 291 292 293 294 295 296 297 296 296 295 294 293 292 292 291 290 289
266 268 270 273 275 277 278 280 282 283 284 285 286 286 286 286 286 285 285 285 286 287 288 289 290 291 292 293 294 295 296 296 297 297 296 295 294 293 293 292 292 291 289
266 268 270 273 275 277 279 280 281 282 283 284 285 285 285 285 284 283 283 284 285 286 287 289 290 291 292 293 294 295 296 296 296 297 296 295 294 294 293 292 292 291 290
267 269 271 273 275 277 278 280 281 281 282 282 283 284 285 285 284 282 282 283 284 285 287 289 290 291 293 294 295 296 297 297 297 297 297 296 295 294 294 293 293 292 291
267 269 270 272 275 276 278 279 279 280 280 281 282 283 283 283 282 281 282 283 284 285 287 289 291 292 293 294 295 296 297 297 298 298 298 297 296 296 295 295 294 293 292
266 268 270 272 274 275 277 277 278 278 279 280 281 281 281 281 281 281 282 284 285 286 287 289 291 292 293 294 295 296 297 298 298 298 298 298 297 297 297 296 295 294 294
267 269 270 272 273 274 275 276 276 277 278 278 279 279 279 280 281 281 282 284 285 287 288 289 291 293 293 295 296 297 297 298 298 298 298 298 298 298 297 297 296 295 295
266 267 269 271 272 273 274 275 275 276 276 276 277 278 279 279 280 281 282 283 285 287 288 290 291 292 294 295 297 298 298 298 298 298 298 298 298 298 298 298 297 297 296
265 266 268 269 270 271 272 273 274 274 275 275 276 277 278 278 279 280 282 284 285 286 288 290 291 293 295 296 297 298 299 299 299 299 299 299 299 299 299 298 298 297 297
265 266 267 268 269 269 271 271 272 273 273 273 274 275 277 278 279 280 281 283 284 286 288 290 291 293 295 296 297 298 298 299 299 299 299 299 299 299 299 298 298 298 297